Theta_e
306 307 308 308 308 307 307 306 305 304 304 305 305 304 304 302 301 309 311 309 310 313 313 313 317 318 319 318 317 318 319 321 320 321 321 322 322 322 321 323 322 326 327 333 334
306 307 307 307 307 307 306 306 305 304 304 305 305 305 304 302 308 311 310 311 311 311 311 311 319 320 320 319 318 318 321 320 320 321 321 321 321 321 320 322 324 324 327 332 333
306 307 306 307 307 306 306 305 304 304 304 305 305 305 305 304 312 313 307 305 303 312 316 310 316 321 321 319 318 318 319 320 320 320 320 320 321 321 321 321 322 328 325 335 334
303 302 306 307 307 306 304 304 304 304 304 304 306 307 305 309 314 313 306 307 313 316 316 312 316 319 320 320 318 318 318 319 319 319 319 319 320 320 321 322 322 326 326 328 332
301 302 305 306 305 303 303 304 304 304 304 304 305 307 308 308 311 311 311 308 314 318 316 316 319 318 319 320 318 318 318 319 319 319 318 319 319 321 321 321 323 327 328 329 330
303 303 304 303 302 302 303 304 303 304 304 304 305 307 309 310 309 311 310 309 308 317 318 317 317 317 318 318 318 318 318 318 318 319 319 318 318 319 320 321 322 327 329 330 330
303 302 303 302 301 302 303 303 303 304 304 304 307 308 309 308 308 308 310 312 312 307 307 309 314 320 319 318 317 317 316 318 319 319 319 319 318 319 320 320 322 326 329 331 330
302 301 301 301 301 301 303 303 303 304 306 306 307 310 311 308 308 308 308 309 310 312 309 307 310 316 318 318 317 317 319 319 319 320 320 319 320 320 321 322 323 325 329 331 330
301 300 300 300 302 301 302 303 305 307 306 309 311 311 312 309 308 309 307 311 312 314 311 309 308 314 316 318 318 318 319 320 319 320 320 320 321 320 321 324 325 325 328 331 331
302 301 299 299 301 301 302 305 309 309 309 311 312 312 313 310 310 311 312 310 312 315 313 312 309 311 316 318 319 318 321 321 321 321 322 321 321 321 322 324 327 325 325 330 332
301 301 299 299 301 301 303 307 310 312 311 312 310 313 312 309 310 310 314 312 315 316 316 312 310 310 316 317 318 319 320 322 323 323 322 322 321 320 321 322 325 326 326 328 332
300 298 298 298 299 301 305 310 308 308 310 308 309 309 309 309 309 310 314 316 317 320 318 318 313 309 312 317 317 318 320 321 322 321 320 320 320 320 320 322 322 323 327 328 330
298 298 298 298 298 305 308 307 308 308 310 310 310 310 311 311 310 309 309 315 315 317 321 321 316 314 313 313 315 318 320 320 320 321 321 320 320 321 319 320 321 324 324 328 329
298 297 298 297 302 305 307 307 308 308 312 315 312 312 312 310 311 309 309 312 313 317 319 321 319 317 318 315 315 318 319 319 320 321 322 321 322 322 321 321 321 323 324 325 327
297 297 297 297 301 303 307 306 308 308 318 308 311 311 312 311 311 310 308 309 312 315 319 323 319 320 319 318 317 319 321 321 321 321 322 321 322 321 322 322 322 323 325 325 326
297 296 297 299 301 305 306 307 309 316 320 308 310 311 310 312 312 310 311 308 308 309 316 316 316 318 317 316 317 317 320 321 321 322 324 321 322 322 322 322 322 323 323 325 325
297 297 297 299 301 302 303 307 317 316 309 309 310 309 309 310 312 312 313 311 309 310 311 313 314 313 317 319 316 317 319 322 323 325 326 322 323 324 323 322 323 323 322 324 327
297 297 298 298 299 302 304 310 313 309 310 309 309 309 308 311 313 313 314 314 311 310 312 318 317 312 315 318 317 317 319 323 327 330 325 322 323 323 323 322 323 322 323 325 327
297 298 299 299 300 302 305 311 308 309 308 308 308 306 306 310 311 313 314 316 314 310 313 316 316 314 317 318 316 318 321 319 324 323 327 328 324 323 323 322 321 322 322 322 324
298 299 299 299 302 303 306 306 308 307 307 308 306 305 308 310 310 312 317 317 317 313 311 312 315 314 314 316 317 318 318 321 320 324 328 328 326 324 325 323 322 322 323 324 325
298 299 299 301 302 306 306 306 306 306 306 308 308 306 309 309 310 311 313 317 316 316 316 313 314 315 315 315 318 318 319 321 322 321 328 330 329 325 325 325 325 325 325 325 325
298 301 301 302 306 304 305 306 305 306 306 305 307 308 309 310 310 310 311 312 312 313 318 319 316 316 318 317 316 316 318 319 325 327 324 329 328 326 325 322 322 323 323 324 324
300 300 299 303 306 305 304 304 304 305 305 306 306 306 307 307 308 309 310 311 310 310 314 313 317 319 317 319 319 317 317 319 320 325 331 333 330 325 322 321 321 320 321 322 322
299 301 301 305 303 305 305 305 305 304 304 305 306 307 306 307 308 309 309 310 310 309 313 310 319 320 319 322 321 321 320 321 322 328 330 330 328 325 324 322 320 320 318 317 318
299 300 301 304 304 303 304 307 306 305 305 305 306 306 306 307 307 308 308 308 309 312 311 315 321 320 319 319 318 319 321 320 322 325 328 325 324 324 323 323 319 318 316 316 317
297 299 299 300 302 304 304 304 305 306 306 306 305 305 306 306 307 307 308 312 310 312 311 315 317 317 319 319 317 317 320 323 322 319 320 322 323 321 320 317 317 316 316 317 319
296 297 300 301 302 302 305 303 303 304 305 308 307 307 306 308 309 310 310 311 311 312 312 313 315 319 320 317 317 318 316 320 319 317 317 318 318 317 316 315 315 317 317 320 320
Wind_Speed
14 15 17 18 18 20 22 23 25 25 26 26 27 29 30 32 34 27 21 22 12 15 14 12 12 20 23 19 21 20 14 15 22 21 21 9 5 6 11 3 6 9 6 9 8
16 16 16 18 20 22 23 25 27 27 26 27 28 30 31 31 32 31 21 14 13 16 15 16 16 18 16 20 18 18 15 22 22 22 12 4 9 8 11 13 12 13 10 16 7
16 18 20 18 20 22 25 25 26 27 27 27 27 29 30 29 17 5 7 11 10 13 18 20 23 18 20 19 21 22 21 20 24 20 9 17 6 5 9 10 10 7 6 13 7
17 19 20 21 22 24 26 27 28 28 28 28 26 26 31 15 7 6 7 12 9 2 10 16 19 20 21 21 22 23 25 22 24 21 11 16 8 12 12 8 9 5 4 3 8
19 19 19 21 24 26 28 29 30 31 31 29 26 22 17 9 17 29 19 8 6 3 13 13 17 18 22 21 21 25 23 23 23 20 18 12 14 13 12 13 4 6 5 6 5
18 18 21 22 24 26 28 30 33 34 35 33 27 18 13 16 18 15 9 8 10 6 9 12 13 16 21 21 22 22 22 23 22 22 16 17 16 15 16 16 11 7 6 7 6
19 21 23 24 26 28 28 31 35 38 35 30 21 12 12 23 18 24 12 10 11 7 7 15 19 16 16 19 20 20 22 21 19 19 23 15 20 20 17 16 18 9 10 9 10
20 23 24 26 28 28 31 32 36 34 28 18 12 7 9 14 15 20 22 26 16 18 10 10 17 17 18 14 19 22 19 18 21 22 21 19 19 19 16 16 13 9 11 11 9
19 23 26 26 27 30 32 34 34 27 19 10 5 8 10 8 11 11 15 13 11 16 13 8 19 14 13 13 13 14 16 21 22 22 21 20 21 18 15 8 7 10 11 13 12
17 21 25 25 25 28 32 36 29 24 14 11 15 6 9 6 10 10 6 9 9 8 9 6 8 12 12 13 14 17 19 20 19 19 21 20 16 13 16 13 14 12 11 13 14
17 20 26 26 26 26 31 21 12 4 9 14 17 16 23 27 16 11 4 6 5 3 13 13 13 17 21 18 20 21 22 21 16 17 15 17 15 16 15 14 13 13 12 10 13
20 23 25 26 25 25 20 11 12 8 14 19 21 20 26 22 15 11 10 8 6 4 13 13 20 19 18 18 21 24 23 22 22 15 3 9 13 15 15 14 14 11 13 11 12
22 22 23 25 22 15 11 10 13 15 7 13 8 9 4 6 14 18 14 12 12 10 12 18 14 16 18 18 20 23 23 18 22 18 14 6 16 19 18 17 14 12 8 12 13
18 21 21 25 16 13 9 13 14 10 6 6 10 6 8 4 5 13 14 12 9 9 6 12 20 14 19 23 20 22 22 22 20 17 14 14 12 14 16 16 14 13 10 9 8
17 20 20 16 17 10 11 17 15 3 5 7 8 5 5 6 6 7 13 12 12 10 6 4 9 15 23 19 23 23 18 16 15 16 16 19 12 12 13 12 19 16 16 14 13
15 17 19 17 12 13 15 15 11 3 7 7 4 3 8 13 9 5 4 12 7 14 14 18 12 21 20 17 22 20 16 17 14 13 14 17 16 12 13 13 11 8 8 15 14
15 16 16 16 14 18 18 11 4 6 3 7 1 2 8 12 7 11 9 9 9 7 14 17 20 21 17 18 17 16 14 9 7 10 10 16 14 11 16 9 4 3 2 5 13
16 17 18 18 16 15 11 4 10 10 8 6 4 7 11 6 6 9 7 8 13 13 9 5 11 21 15 18 15 18 15 7 8 7 13 19 10 14 18 14 5 4 3 6 9
15 19 22 17 15 15 5 9 5 14 7 4 8 11 13 6 4 7 11 6 5 16 8 3 8 10 16 16 15 14 14 17 15 7 5 9 18 15 6 7 5 6 7 4 7
14 17 21 20 18 13 7 15 15 15 9 6 10 6 9 1 5 4 3 8 2 5 15 6 6 15 15 17 17 17 15 10 5 5 6 7 5 8 9 8 9 6 7 5 4
9 4 15 21 16 5 9 14 16 21 17 7 10 13 7 9 6 9 3 3 8 7 11 14 11 6 14 12 16 13 15 11 13 10 5 2 4 12 12 11 7 11 12 10 8
5 4 7 17 8 6 10 17 23 19 12 13 8 12 12 9 9 13 11 4 6 6 7 12 6 10 18 18 14 16 14 18 7 9 12 5 1 15 6 8 8 9 9 9 6
4 9 19 9 7 12 16 20 23 22 18 17 13 12 15 13 13 12 14 9 6 4 8 10 6 9 9 8 13 17 19 12 14 8 6 5 5 9 11 10 6 6 8 12 13
3 4 9 7 11 16 16 19 18 18 19 22 18 14 14 13 12 11 11 3 3 3 8 5 8 10 9 4 6 7 16 20 16 6 5 8 4 10 13 8 5 7 10 11 13
3 6 7 5 13 16 19 9 18 18 18 16 18 18 15 13 15 15 15 17 11 5 5 3 5 12 15 17 16 12 15 13 9 13 9 12 13 7 7 16 5 6 9 9 9
5 5 9 12 16 14 19 19 21 17 19 16 18 17 15 17 16 15 12 12 7 5 2 5 3 12 11 9 9 9 10 7 17 15 5 9 7 11 17 9 9 9 9 9 9
8 20 5 6 12 15 13 18 22 19 14 15 13 15 15 9 6 11 4 4 7 10 10 2 3 4 3 8 9 8 11 14 16 8 5 9 5 11 5 6 8 8 9 13 12
Wind_Direction
342 344 341 335 331 330 330 330 327 329 326 323 325 325 326 329 319 308 273 270 262 263 268 264 225 224 238 230 240 235 249 254 259 262 265 139 159 210 247 212 276 189 219 109 126
340 339 335 330 328 329 325 323 322 322 320 321 323 324 325 330 312 285 271 268 282 273 255 245 224 222 229 237 239 233 244 246 258 267 303 199 164 228 245 214 217 232 193 130 140
337 330 329 330 329 324 323 322 323 321 318 318 319 320 320 327 291 262 95 350 300 281 236 232 241 219 232 237 237 238 240 253 262 288 299 300 267 277 267 257 263 46 354 140 164
330 327 328 329 328 324 323 323 320 318 318 317 316 316 314 312 299 91 338 341 340 262 216 226 247 230 234 238 242 245 243 245 261 274 277 267 286 266 271 261 266 143 87 252 175
327 327 327 329 327 324 323 320 315 314 314 312 312 314 327 270 248 286 287 311 287 251 235 212 235 230 239 240 248 248 251 251 255 264 269 250 262 267 266 266 286 128 141 223 200
328 327 325 325 323 321 320 316 313 311 310 310 304 300 273 267 271 280 250 275 270 257 231 235 245 245 248 252 249 252 252 252 252 259 260 247 248 252 253 260 247 161 193 207 193
328 326 324 324 323 320 318 314 311 311 312 306 291 273 260 252 270 296 261 248 260 272 301 302 301 288 257 255 261 265 273 269 243 246 262 243 245 247 253 241 250 194 191 201 187
327 325 325 323 323 320 317 314 312 309 310 298 284 236 259 269 281 271 262 258 257 252 262 291 296 296 290 284 285 262 256 259 255 249 242 245 252 256 251 244 210 217 187 185 202
324 323 324 322 323 321 319 313 307 301 297 298 218 215 266 302 241 278 241 256 264 239 264 309 292 264 273 256 264 257 251 245 244 252 249 218 240 247 249 180 219 237 204 183 181
325 327 327 323 321 322 321 312 310 294 272 250 250 248 259 273 355 312 283 240 254 266 239 270 262 241 235 237 227 236 229 236 258 247 229 225 229 237 267 182 207 232 256 187 176
324 330 327 324 321 323 323 325 360 170 296 279 281 257 290 290 277 306 180 187 138 299 220 229 230 229 221 226 254 270 270 277 259 241 249 210 237 259 237 240 212 201 214 234 177
318 320 324 323 320 320 316 316 12 325 297 276 263 263 266 268 267 249 197 198 183 179 253 275 235 229 232 237 236 254 263 272 274 279 202 278 258 267 256 239 231 214 192 211 183
319 319 318 321 318 317 298 305 339 6 282 300 227 235 285 269 243 241 239 207 232 222 208 249 263 229 241 236 245 249 252 254 264 279 274 225 266 262 260 250 236 205 228 204 192
313 321 318 326 302 328 311 339 344 358 287 192 192 171 189 252 233 229 227 216 227 236 276 236 269 260 254 241 242 247 243 243 258 266 261 236 260 272 230 236 222 225 195 221 209
311 314 316 315 300 302 306 326 327 358 296 140 135 108 162 233 330 157 218 241 252 220 159 231 246 244 243 245 223 254 255 257 257 253 265 265 270 269 288 247 215 202 197 201 196
302 309 311 311 243 277 317 320 305 236 247 154 156 206 232 232 196 138 184 210 238 248 212 258 241 253 272 238 260 279 250 257 258 258 244 248 258 264 260 248 244 191 197 195 181
295 294 298 290 277 305 320 310 224 239 149 147 138 277 287 265 239 182 185 190 203 208 232 244 255 253 248 252 244 259 266 227 229 237 245 245 245 237 264 288 8 111 145 168 155
293 289 286 268 267 277 302 260 239 280 267 118 289 274 282 349 198 190 207 224 208 239 271 253 246 246 237 238 225 236 256 228 201 233 242 229 233 234 229 254 61 346 231 109 126
288 284 271 257 240 240 249 234 237 228 291 328 303 268 263 187 270 268 200 245 202 191 216 229 249 217 229 243 211 220 255 255 263 266 294 273 220 241 163 131 167 203 187 156 150
281 288 274 252 222 228 233 237 249 264 291 288 273 288 291 214 299 275 75 320 58 184 216 235 275 287 227 202 227 207 233 261 256 230 236 266 192 206 209 168 197 150 172 163 118
278 264 266 214 203 204 226 224 239 268 285 243 267 273 273 288 283 299 325 86 1 357 315 247 238 272 287 205 216 210 229 225 252 230 236 240 250 7 31 55 67 55 58 63 59
253 238 176 176 184 211 238 234 255 268 287 251 266 282 291 301 282 280 275 52 74 354 331 309 265 234 239 257 212 263 250 220 229 228 243 253 269 153 171 64 34 28 25 67 21
248 241 257 209 215 223 238 242 253 263 255 269 244 249 261 269 276 264 259 277 68 356 15 354 253 251 260 242 256 216 246 252 230 241 226 257 231 231 125 127 91 30 21 23 16
276 250 225 203 243 254 245 244 247 254 260 268 256 251 246 241 250 264 284 252 360 350 114 355 276 270 261 205 353 296 220 216 223 230 215 227 162 343 341 333 73 74 55 25 5
221 242 256 224 235 230 251 259 241 240 235 242 257 251 249 263 261 255 250 262 254 187 154 82 290 315 295 303 209 219 251 252 219 228 238 235 245 266 293 287 245 51 55 38 22
240 240 260 260 261 259 235 240 256 251 259 228 243 245 248 252 248 263 298 321 267 301 9 139 277 323 305 285 278 273 208 238 284 211 227 188 307 238 233 247 44 34 21 13 27
218 260 295 261 276 265 249 251 244 249 230 275 260 278 242 258 13 301 311 224 273 289 285 162 270 331 271 314 301 267 252 190 220 261 232 247 256 29 28 39 41 16 13 42 23